World > North America > United States > Montana   City of Billings, MT

Billings, Montana Regional Weather

Lat: 45.79N, Lon: 108.54W
Wx Zone: MTZ035Web Search

Helpful Tip: Type the letters wx in the search engine next time you need to find us.

Feedback
Billings Weather Map
UTC Time: 1/24/2021, 12:16
Your Time:

Billings, MT Regional Weather

Expires:202101241300;;411226
ASUS45 KTFX 241210
RWRMT 
Montana Regional Weather Roundup
National Weather Service Great Falls MT
500 AM MST SUN JAN 24 2021

NOTE: "FAIR" indicates few or no clouds below 12,000 feet with no
significant weather and/or obstructions to visibility.


MTZ028>42-056>058-241300-
Southcentral and southeast Montana
  
CITY           SKY/WX    TMP DP  RH WIND       PRES   REMARKS
Baker          CLEAR      2  -4  76 SE7       29.87F WCI -11          
Billings       CLEAR     14   9  80 CALM      29.75F                  
Livingston     CLEAR      9   3  77 W23       29.73S WCI -11          
Miles City     CLEAR      9   5  84 S6        29.84F WCI  -1          
$$

Regional Reports...Dakotas/MN
  
CITY           SKY/WX    TMP DP  RH WIND       PRES   REMARKS
Williston      CLOUDY    -1  -6  79 NE13      29.97F WCI -19          
Minot          LGT SNOW   0  -6  76 NE6       30.07S WCI -12          
Dickinson      CLEAR      4   0  83 S7        29.91F WCI  -8          
Beach          FAIR       3   0  85 SE5       29.90F                  
Crosby         LGT SNOW  -6 -11  77 NE5       30.05F                  
Hettinger      CLEAR     -3  -8  79 SE3       29.95S                  
Tioga          FAIR      -2  -6  84 E8        30.01S FOG     WCI -17  
Watford City   CLOUDY     3  -4  72 E10       30.00S WCI -12          
Bismarck       PTCLDY     2  -5  72 NE5       30.08R                  
Grand Forks    CLOUDY     1  -7  68 NW12      30.13S WCI -16          
Fargo          CLEAR      2  -3  80 NW7       30.13R WCI -11          
Buffalo SD       N/A      9   4  80 SE6       29.88F WCI  -1          
Rapid City     CLEAR     12  10  92 SE10      29.92F WCI  -1          
Intl Falls     MOCLDY    11   4  73 W13G26    29.94S WCI  -4          
Duluth         FLURRIES  16  11  80 W13       29.95S WCI   2          
Minneapolis    CLOUDY    16  14  92 CALM      30.07R                  
$$

Regional Reports...WY/ID/WA
  
CITY           SKY/WX    TMP DP  RH WIND       PRES   REMARKS
Buffalo WY     FOG       11   9  92 SE7       29.69F VSB 1/4 WCI   0  
Cody           CLEAR     13   7  77 S9        29.75F WCI   1          
Gillette       CLEAR     16  11  80 S18G25    29.78F WCI   0          
Powell         FAIR      18  14  86 SE13      29.73F WCI   4          
Sheridan       CLEAR      1  -4  79 CALM      29.75F                  
Yellowstone La   N/A     -5  -7  91 CALM      29.79F                  
Boise          CLEAR     25  19  78 SE9       29.88F WCI  15          
Couer d'Alene  PTCLDY    17  15  92 NE7       29.87F WCI   8          
Idaho Falls    CLOUDY    22  16  78 SE3       29.87F                  
Salmon         FOG        9   7  92 N5        29.92F VSB 1/4          
Spokane        CLOUDY    21  17  84 NE7       29.84F WCI  12          
Seattle        CLOUDY    39  34  82 SE7       29.87F                  
$$

Regional Reports...Alberta
  
CITY           SKY/WX    TMP DP  RH WIND       PRES   REMARKS
Calgary        LGT SNOW   5   1  85 S9        29.68F FOG     WCI  -9  
Cardston         N/A      7   3  85 N1          N/A                   
Crowsnest Pass   N/A     18  10  73 NW12G20     N/A  WCI   5          
Del Bonita       N/A     14   9  79 SW2         N/A                   
Edmonton       MOCLDY    -8 -15  71 E7        29.85F WCI -22          
Fort McMurray  CLEAR    -24 -31  69 E9        30.08F WCI -45          
High Level     CLOUDY   -15 -20  76 S6        29.95F WCI -29          
Lethbridge     FLURRIES   3   1  92 NW3       29.74F                  
Lloydminster   CLEAR    -24 -29  76 SE5       29.96F                  
Medicine Hat   FLURRIES   5   0  78 NE12      29.79F WCI -11          
Milk River       N/A      5   3  92 N8          N/A  WCI  -8          
Onefour          N/A      9   5  85 E13         N/A  WCI  -7          
Peace River    FLURRIES   0  -6  78 N8        29.81F WCI -15          
Pincher Creek    N/A     19   9  63 W16       29.64F WCI   5          
Raymond          N/A      5   1  85 NW2         N/A                   
Waterton Gate    N/A     23   7  50 SW22G35     N/A  WCI   8          
Fort Smith NWT PTCLDY   -26 -31  75 E3        30.14S                  
$$

Regional Reports...Saskatchewan
  
CITY           SKY/WX    TMP DP  RH WIND       PRES   REMARKS
Assiniboia       N/A     -8 -13  77 E13         N/A  WCI -28          
Coronach         N/A     -2 N/A N/A E9          N/A  WCI -18          
Cypress Hills    N/A      3   0  85 SE5         N/A                   
Estevan        CLOUDY    -6 -13  71 N5        30.05S                  
La Ronge         N/A    -36 -44  67 CALM        N/A                   
Moose Jaw        N/A    -17 -20  83 E5          N/A                   
Prince Albert  CLEAR    -36 -44  67 CALM      30.20S                  
Regina         MOCLDY   -18 -24  76 VRB2      30.07S                  
Rockglen         N/A     -2  -8  78 E7          N/A  WCI -16          
Saskatoon      PTCLDY   -29 -36  68 NE7       30.10F WCI -48          
Swift Current  FLURRIES  -8 -13  77 SE14      29.86F WCI -28          
Uranium City     N/A    -27 -35  68 MISG        N/A                   
Val Marie        N/A      9   3  78 E12         N/A  WCI  -6          
$$
  

SKY/WX - Weather  TMP - Temperature  DP - Dew Point  RH - Relative Humidity
WIND - Wind Direction/Speed PRES - Barometric Pressure VSB - Visibility
WCI - Wind Chill Index E13G22 Wind - East Wind 13 mph/Gusts of 22 mph
Billings, MT web page url QR Code Scan this code with your camera.